East Milton, MA

10:07 AM EDT on March 30, 2017 (GMT -0400)
East Milton

Weather History for KMQE - March, 2013

Change the Weather History Date:

Saturday, March 9, 2013

  Actual Average (KOWD) Record (KOWD)
Temperature  
Mean Temperature 34 °F -  
Max Temperature 39 °F 40 °F 77 °F (2016)
Min Temperature 30 °F 23 °F 3 °F (2007)
Degree Days  
Heating Degree Days 30    
Moisture  
Dew Point 25 °F    
Average Humidity 70    
Maximum Humidity 89    
Minimum Humidity 56    
Precipitation  
Precipitation 0.00 in - - ()
Sea Level Pressure  
Sea Level Pressure 30.26 in    
Wind  
Wind Speed 13 mph (NE)    
Max Wind Speed 18 mph    
Max Gust Speed 28 mph    
Averages and records for this station are not official NWS values.
T = Trace of Precipitation, MM = Missing Value Source: NWS Daily Summary

Daily Weather History Graph

Daily Weather History Graph

Search for Another Location

Airport or City:

Trip Planner

Search our weather history database for the weather conditions in past years. The results will help you decide how hot, cold, wet, or windy it might be!

Date:

Astronomy

Mar. 09, 2013 Rise Set
Actual Time 6:06 AM EST 5:44 PM EST
Civil Twilight 5:38 AM EST 6:12 PM EST
Nautical Twilight 5:05 AM EST 6:44 PM EST
Astronomical Twilight 4:33 AM EST 7:17 PM EST
Moon 4:30 AM EST (3/9) 3:41 PM EST (3/9)
Length of Visible Light 12h 33m
Length of Day
11h 38m
Waning Crescent, 5% of the Moon is Illuminated
Mar 9
Waning Crescent
Mar 11
New
Mar 19
First Quarter
Mar 27
Full
Apr 3
Last Quarter

Hourly Weather History & Observations

Time (EST) Temp. Windchill Dew Point Humidity Pressure Visibility Wind Dir Wind Speed Gust Speed Precip Events Conditions
12:54 AM 34.0 °F 23.8 °F 19.9 °F 56% 30.16 in - North 16.1 mph 25.3 mph N/A   Unknown
1:54 AM 33.1 °F 23.4 °F 19.9 °F 59% 30.15 in - North 13.8 mph 23.0 mph N/A   Unknown
2:54 AM 33.1 °F 23.0 °F 19.0 °F 56% 30.15 in - North 15.0 mph 27.6 mph N/A   Unknown
3:54 AM 32.0 °F 22.1 °F 19.0 °F 59% 30.15 in - NNE 13.8 mph 23.0 mph N/A   Unknown
4:54 AM 30.9 °F 20.7 °F 19.0 °F 61% 30.17 in - North 13.8 mph 20.7 mph N/A   Unknown
5:54 AM 30.0 °F 19.1 °F 19.0 °F 64% 30.19 in - NNE 15.0 mph 25.3 mph N/A   Unknown
6:54 AM 30.9 °F 20.7 °F 19.0 °F 61% 30.21 in - NNE 13.8 mph 25.3 mph N/A   Unknown
7:54 AM 33.1 °F 22.6 °F 21.0 °F 61% 30.24 in - NNE 16.1 mph 25.3 mph N/A   Unknown
8:54 AM 35.1 °F 24.5 °F 24.1 °F 64% 30.24 in - NNE 18.4 mph 26.5 mph N/A   Unknown
9:54 AM 37.0 °F 27.4 °F 26.1 °F 65% 30.26 in - NE 17.3 mph 27.6 mph N/A   Unknown
10:54 AM 37.9 °F 30.5 °F 27.0 °F 65% 30.26 in - NNE 11.5 mph 24.2 mph N/A   Unknown
11:54 AM 37.9 °F 30.0 °F 26.1 °F 62% 30.27 in - NNE 12.7 mph 23.0 mph N/A   Unknown
12:54 PM 39.0 °F 32.3 °F 26.1 °F 60% 30.27 in - NE 10.4 mph 19.6 mph N/A   Unknown
1:54 PM 39.0 °F 32.8 °F 27.0 °F 62% 30.26 in - ENE 9.2 mph 19.6 mph N/A   Unknown
2:54 PM 37.9 °F 30.9 °F 28.0 °F 68% 30.26 in - East 10.4 mph - N/A   Unknown
3:54 PM 37.0 °F 30.4 °F 28.0 °F 70% 30.27 in - ENE 9.2 mph - N/A   Unknown
4:54 PM 35.1 °F 29.3 °F 28.0 °F 76% 30.30 in - ENE 6.9 mph - N/A   Unknown
5:54 PM 33.1 °F 24.9 °F 27.0 °F 78% 30.32 in - ENE 10.4 mph - N/A   Unknown
6:54 PM 32.0 °F 22.5 °F 28.0 °F 85% 30.33 in - ENE 12.7 mph - N/A   Unknown
7:54 PM 32.0 °F 23.0 °F 28.0 °F 85% 30.33 in - ENE 11.5 mph - N/A   Unknown
8:54 PM 32.0 °F 24.8 °F 28.0 °F 85% 30.34 in - NE 8.1 mph - N/A   Unknown
9:54 PM 30.9 °F 24.3 °F 28.0 °F 89% 30.36 in - North 6.9 mph - N/A   Unknown
10:54 PM 30.9 °F 22.2 °F 28.0 °F 89% 30.35 in - NE 10.4 mph - N/A   Unknown
11:54 PM 30.9 °F 22.2 °F 28.0 °F 89% 30.35 in - NNE 10.4 mph - N/A   Unknown